Penn Yan, NY

1:34 PM EDT on June 22, 2017 (GMT -0400)
Penn Yan

Weather History for KPEO - November, 2012

Change the Weather History Date:

Saturday, November 3, 2012

  Actual Average (KITH) Record (KITH)
Temperature  
Mean Temperature 38 °F -  
Max Temperature 41 °F 56 °F 78 °F (1982)
Min Temperature 36 °F 37 °F 22 °F (1965)
Degree Days  
Heating Degree Days 26    
Moisture  
Dew Point 30 °F    
Average Humidity 75    
Maximum Humidity 82    
Minimum Humidity 65    
Precipitation  
Precipitation 0.00 in - - ()
Sea Level Pressure  
Sea Level Pressure 29.97 in    
Wind  
Wind Speed 10 mph (WNW)    
Max Wind Speed 16 mph    
Max Gust Speed 28 mph    
Visibility 10 miles    
Events Rain , Snow    
Averages and records for this station are not official NWS values.
T = Trace of Precipitation, MM = Missing Value Source: NWS Daily Summary

Daily Weather History Graph

Daily Weather History Graph

Search for Another Location

Airport or City:

Trip Planner

Search our weather history database for the weather conditions in past years. The results will help you decide how hot, cold, wet, or windy it might be!

Date:

Astronomy

Nov. 03, 2012 Rise Set
Actual Time 7:45 AM EDT 5:57 PM EDT
Civil Twilight 7:15 AM EDT 6:27 PM EDT
Nautical Twilight 6:42 AM EDT 7:00 PM EDT
Astronomical Twilight 6:09 AM EDT 7:33 PM EDT
Moon 9:34 PM EDT (11/3) 11:50 AM EDT (11/3)
Length of Visible Light 11h 11m
Length of Day
10h 12m
Waning Gibbous, 80% of the Moon is Illuminated
Nov 3
Waning Gibbous
Nov 6
Last Quarter
Nov 13
New
Nov 20
First Quarter
Nov 28
Full

Hourly Weather History & Observations

Time (EDT) Temp. Windchill Dew Point Humidity Pressure Visibility Wind Dir Wind Speed Gust Speed Precip Events Conditions
12:53 AM 36.0 °F 29.0 °F 30.9 °F 82% 29.87 in 10.0 mi West 9.2 mph 16.1 mph N/A   Overcast
1:53 AM 36.0 °F 29.6 °F 30.9 °F 82% 29.88 in 10.0 mi West 8.1 mph - N/A   Overcast
2:41 AM 37.4 °F 31.4 °F 30.2 °F 75% 29.86 in 10.0 mi WNW 8.1 mph - 0.00 in   Overcast
2:53 AM 37.0 °F 31.0 °F 30.9 °F 79% 29.88 in 10.0 mi West 8.1 mph - 0.00 in   Overcast
3:12 AM 37.4 °F 30.8 °F 30.2 °F 75% 29.86 in 10.0 mi West 9.2 mph 18.4 mph N/A   Overcast
3:53 AM 37.0 °F 30.4 °F 30.9 °F 79% 29.88 in 10.0 mi West 9.2 mph 17.3 mph N/A   Overcast
4:38 AM 37.4 °F 29.8 °F 30.2 °F 75% 29.86 in 10.0 mi WNW 11.5 mph 19.6 mph N/A   Overcast
4:53 AM 37.0 °F 31.0 °F 30.9 °F 79% 29.89 in 10.0 mi WNW 8.1 mph 16.1 mph N/A   Overcast
5:53 AM 37.0 °F 29.8 °F 30.0 °F 76% 29.91 in 10.0 mi West 10.4 mph 16.1 mph N/A   Overcast
6:53 AM 36.0 °F 29.0 °F 30.0 °F 79% 29.92 in 10.0 mi West 9.2 mph - N/A   Overcast
7:53 AM 36.0 °F 28.5 °F 30.0 °F 79% 29.94 in 10.0 mi West 10.4 mph 18.4 mph N/A   Overcast
8:53 AM 37.0 °F 29.8 °F 30.0 °F 76% 29.96 in 10.0 mi WNW 10.4 mph 18.4 mph N/A   Scattered Clouds
9:31 AM 37.4 °F 29.3 °F 30.2 °F 75% 29.94 in 10.0 mi WNW 12.7 mph 19.6 mph N/A   Mostly Cloudy
9:53 AM 37.9 °F 32.1 °F 30.9 °F 76% 29.97 in 10.0 mi West 8.1 mph - N/A   Overcast
10:53 AM 37.9 °F 30.0 °F 30.0 °F 73% 29.98 in 10.0 mi WNW 12.7 mph 23.0 mph N/A   Overcast
11:53 AM 39.9 °F 32.9 °F 30.0 °F 68% 29.99 in 10.0 mi WNW 11.5 mph 20.7 mph N/A   Mostly Cloudy
12:05 PM 41.0 °F 34.3 °F 30.2 °F 65% 29.96 in 10.0 mi West 11.5 mph 21.9 mph N/A   Mostly Cloudy
12:38 PM 39.2 °F 32.0 °F 30.2 °F 70% 29.96 in 10.0 mi WNW 11.5 mph 19.6 mph 0.00 in Rain Light Rain
12:53 PM 39.0 °F 31.0 °F 28.9 °F 67% 29.99 in 10.0 mi West 13.8 mph 23.0 mph 0.00 in   Overcast
1:19 PM 37.4 °F 28.9 °F 30.2 °F 75% 29.96 in 10.0 mi WNW 13.8 mph 23.0 mph 0.00 in   Overcast
1:29 PM 41.0 °F 34.3 °F 30.2 °F 65% 29.96 in 10.0 mi WNW 11.5 mph 20.7 mph 0.00 in   Overcast
1:39 PM 37.4 °F 29.3 °F 30.2 °F 75% 29.96 in 9.0 mi WNW 12.7 mph 26.5 mph 0.00 in Rain Light Rain
1:46 PM 39.2 °F 31.6 °F 30.2 °F 70% 29.96 in 10.0 mi WNW 12.7 mph 20.7 mph 0.00 in   Mostly Cloudy
1:53 PM 39.9 °F 32.1 °F 30.9 °F 70% 29.99 in 10.0 mi WNW 13.8 mph 23.0 mph 0.00 in   Mostly Cloudy
2:15 PM 37.4 °F 29.8 °F 32.0 °F 81% 29.97 in 7.0 mi WNW 11.5 mph 27.6 mph 0.00 in Rain Light Rain
2:23 PM 39.2 °F 32.0 °F 32.0 °F 75% 29.96 in 10.0 mi WNW 11.5 mph 20.7 mph 0.00 in Rain Light Rain
2:37 PM 39.2 °F 30.5 °F 32.0 °F 75% 29.97 in 9.0 mi NW 16.1 mph 25.3 mph 0.00 in Rain Light Rain
2:53 PM 37.0 °F 29.8 °F 32.0 °F 82% 30.00 in 8.0 mi NW 10.4 mph 20.7 mph 0.00 in Snow Light Snow
3:04 PM 39.2 °F 32.0 °F 32.0 °F 75% 29.98 in 10.0 mi WNW 11.5 mph 23.0 mph 0.00 in   Overcast
3:53 PM 37.0 °F 29.3 °F 30.9 °F 79% 30.01 in 8.0 mi NW 11.5 mph 19.6 mph 0.00 in Rain Light Rain
4:10 PM 37.4 °F 29.8 °F 30.2 °F 75% 29.99 in 10.0 mi NW 11.5 mph 16.1 mph 0.00 in   Overcast
4:20 PM 37.4 °F 30.8 °F 30.2 °F 75% 29.99 in 10.0 mi NW 9.2 mph 19.6 mph 0.00 in Rain Light Rain
4:43 PM 37.4 °F 30.3 °F 30.2 °F 75% 29.99 in 10.0 mi WNW 10.4 mph 16.1 mph 0.00 in   Overcast
4:53 PM 37.9 °F 30.5 °F 30.0 °F 73% 30.02 in 10.0 mi NW 11.5 mph 17.3 mph 0.00 in   Overcast
5:53 PM 37.0 °F 28.9 °F 28.9 °F 73% 30.04 in 10.0 mi West 12.7 mph 19.6 mph N/A   Overcast
6:53 PM 37.0 °F 31.6 °F 28.9 °F 73% 30.05 in 10.0 mi West 6.9 mph 16.1 mph N/A   Overcast
7:53 PM 37.0 °F 30.4 °F 28.0 °F 70% 30.06 in 10.0 mi WNW 9.2 mph - N/A   Overcast
8:32 PM 37.4 °F 32.1 °F 28.4 °F 70% 30.03 in 10.0 mi WNW 6.9 mph 16.1 mph 0.00 in   Overcast
8:53 PM 37.0 °F 30.4 °F 28.9 °F 73% 30.06 in 10.0 mi West 9.2 mph 16.1 mph 0.00 in   Overcast
9:53 PM 36.0 °F 29.6 °F 28.9 °F 76% 30.06 in 10.0 mi WNW 8.1 mph 18.4 mph N/A   Overcast
10:53 PM 36.0 °F 28.0 °F 28.9 °F 76% 30.07 in 10.0 mi WNW 11.5 mph 16.1 mph N/A   Overcast
11:53 PM 36.0 °F 32.1 °F 28.0 °F 73% 30.06 in 10.0 mi WNW 4.6 mph - N/A   Overcast